• In Hungary
  • List of Countries
  • For 7 days
  • Water Temperature
  • Satellite Maps
  • Weather Map
  • News
  • Weather Widgets
  • user-avatar
    Login

    Hourly Weather Belsznica

    Today, 19 February, Monday

    Time Temperature Precipitation Wind Pressure Humidity
    00:00 -2°C° 0 mm 1 mps 751 mmHg 87%
    01:00 -2°C° 0 mm 1 mps 750 mmHg 88%
    02:00 -3°C° 0 mm 1 mps 750 mmHg 88%
    03:00 -3°C° 0 mm 1 mps 750 mmHg 89%
    04:00 -3°C° 0 mm 1 mps 749 mmHg 89%
    05:00 -3°C° 0 mm 1 mps 749 mmHg 89%
    06:00 -3°C° 0 mm 1 mps 749 mmHg 88%
    07:00 -3°C° 0 mm 1 mps 749 mmHg 88%
    08:00 -2°C° 0 mm 1 mps 749 mmHg 82%
    09:00 -1°C° 0 mm 1 mps 749 mmHg 77%
    10:00 +1°C° 0 mm 1 mps 748 mmHg 71%
    11:00 +2°C° 0 mm 1 mps 748 mmHg 69%
    12:00 +2°C° 0 mm 1 mps 748 mmHg 67%
    13:00 +3°C° 0 mm 1 mps 747 mmHg 64%
    14:00 +3°C° 0 mm 1 mps 747 mmHg 67%
    15:00 +3°C° 0 mm 1 mps 747 mmHg 69%
    16:00 +2°C° 0 mm 1 mps 746 mmHg 72%
    17:00 +1°C° 0 mm 1 mps 746 mmHg 76%
    18:00 -2°C° 0 mm 2 mps 746 mmHg 80%
    19:00 -3°C° 0 mm 2 mps 746 mmHg 84%
    20:00 -3°C° 0 mm 2 mps 746 mmHg 85%
    21:00 -1°C° 0 mm 1 mps 746 mmHg 85%
    22:00 -1°C° 0 mm 1 mps 746 mmHg 85%
    23:00 -1°C° 0 mm 1 mps 745 mmHg 85%

    Tomorrow, 20 February, Tuesday

    Time Temperature Precipitation Wind Pressure Humidity
    00:00 -1°C° 0 mm 1 mps 745 mmHg 84%
    01:00 -1°C° 0 mm 1 mps 745 mmHg 84%
    02:00 -2°C° 0 mm 1 mps 745 mmHg 84%
    03:00 -2°C° 0 mm 1 mps 744 mmHg 84%
    04:00 -2°C° 0 mm 1 mps 744 mmHg 84%
    05:00 -2°C° 0 mm 1 mps 744 mmHg 85%
    06:00 -2°C° 0 mm 1 mps 744 mmHg 85%
    07:00 -2°C° 0 mm 1 mps 744 mmHg 85%
    08:00 -3°C° 0 mm 2 mps 744 mmHg 81%
    09:00 -2°C° 0 mm 2 mps 744 mmHg 78%
    10:00 -1°C° 0 mm 2 mps 744 mmHg 74%
    11:00 -1°C° 0 mm 2 mps 744 mmHg 71%
    12:00 +1°C° 0 mm 2 mps 744 mmHg 69%
    13:00 +2°C° 0 mm 2 mps 743 mmHg 66%
    14:00 +1°C° 0 mm 2 mps 743 mmHg 68%
    15:00 +1°C° 0 mm 2 mps 743 mmHg 70%
    16:00 0°C° 0 mm 3 mps 743 mmHg 71%
    17:00 -1°C° 0 mm 3 mps 743 mmHg 74%
    18:00 -1°C° 0 mm 3 mps 743 mmHg 76%
    19:00 -2°C° 0 mm 3 mps 743 mmHg 79%
    20:00 -2°C° 0 mm 3 mps 744 mmHg 80%
    21:00 -2°C° 0 mm 3 mps 744 mmHg 81%
    22:00 -4°C° 0 mm 3 mps 744 mmHg 82%
    23:00 -4°C° 0 mm 3 mps 744 mmHg 83%

    Day after tomorrow, 21 February, Wednesday

    Time Temperature Precipitation Wind Pressure Humidity
    00:00 -4°C° 0 mm 3 mps 744 mmHg 84%
    01:00 -4°C° 0 mm 3 mps 744 mmHg 86%
    02:00 -4°C° 0 mm 3 mps 744 mmHg 86%
    03:00 -4°C° 0 mm 3 mps 744 mmHg 86%
    04:00 -4°C° 0 mm 3 mps 744 mmHg 86%
    05:00 -4°C° 0 mm 3 mps 744 mmHg 86%
    06:00 -5°C° 0 mm 3 mps 745 mmHg 86%
    07:00 -5°C° 0 mm 3 mps 745 mmHg 86%
    08:00 -4°C° 0 mm 3 mps 745 mmHg 83%
    09:00 -4°C° 0 mm 3 mps 745 mmHg 80%
    10:00 -2°C° 0 mm 3 mps 745 mmHg 77%
    11:00 -1°C° 0 mm 3 mps 745 mmHg 75%
    12:00 -2°C° 0 mm 4 mps 745 mmHg 72%
    13:00 -1°C° 0 mm 4 mps 745 mmHg 69%
    14:00 -1°C° 0 mm 4 mps 744 mmHg 69%
    15:00 -1°C° 0 mm 4 mps 744 mmHg 70%
    16:00 -1°C° 0 mm 4 mps 744 mmHg 70%
    17:00 -2°C° 0 mm 4 mps 745 mmHg 73%
    18:00 -2°C° 0 mm 3 mps 745 mmHg 75%
    19:00 -2°C° 0 mm 3 mps 745 mmHg 78%
    20:00 -2°C° 0 mm 3 mps 745 mmHg 78%
    21:00 -4°C° 0 mm 4 mps 745 mmHg 78%
    22:00 -4°C° 0 mm 4 mps 745 mmHg 78%
    23:00 -4°C° 0 mm 4 mps 745 mmHg 78%

    22 February, Thursday

    Time Temperature Precipitation Wind Pressure Humidity
    00:00 -4°C° 0 mm 4 mps 745 mmHg 78%
    01:00 -4°C° 0 mm 4 mps 745 mmHg 78%
    02:00 -4°C° 0 mm 4 mps 745 mmHg 79%
    03:00 -4°C° 0 mm 4 mps 745 mmHg 79%
    04:00 -4°C° 0 mm 4 mps 745 mmHg 79%
    05:00 -4°C° 0 mm 4 mps 745 mmHg 80%
    06:00 -5°C° 0 mm 5 mps 745 mmHg 80%
    07:00 -5°C° 0 mm 5 mps 745 mmHg 80%
    08:00 -5°C° 0 mm 5 mps 745 mmHg 78%
    09:00 -4°C° 0 mm 5 mps 745 mmHg 76%
    10:00 -4°C° 0 mm 5 mps 745 mmHg 74%
    11:00 -4°C° 0 mm 5 mps 745 mmHg 72%
    12:00 -2°C° 0 mm 5 mps 745 mmHg 70%
    13:00 -2°C° 0 mm 5 mps 745 mmHg 69%
    14:00 -2°C° 0 mm 5 mps 744 mmHg 69%
    15:00 -2°C° 0 mm 5 mps 744 mmHg 70%
    16:00 -2°C° 0 mm 5 mps 744 mmHg 70%
    17:00 -4°C° 0 mm 5 mps 744 mmHg 72%
    18:00 -4°C° 0 mm 5 mps 745 mmHg 73%
    19:00 -4°C° 0 mm 5 mps 745 mmHg 75%
    20:00 -4°C° 0 mm 5 mps 745 mmHg 75%
    21:00 -5°C° 0 mm 5 mps 745 mmHg 75%
    22:00 -4°C° 0 mm 4 mps 745 mmHg 76%
    23:00 -4°C° 0 mm 4 mps 745 mmHg 76%

    23 February, Friday

    Time Temperature Precipitation Wind Pressure Humidity
    00:00 -4°C° 0 mm 4 mps 745 mmHg 76%
    01:00 -4°C° 0 mm 4 mps 745 mmHg 76%
    02:00 -4°C° 0 mm 4 mps 745 mmHg 76%
    03:00 -5°C° 0 mm 5 mps 745 mmHg 76%
    04:00 -5°C° 0 mm 5 mps 744 mmHg 76%
    05:00 -5°C° 0 mm 5 mps 745 mmHg 76%
    06:00 -6°C° 0 mm 5 mps 745 mmHg 76%
    07:00 -6°C° 0 mm 5 mps 745 mmHg 76%
    08:00 -5°C° 0 mm 5 mps 745 mmHg 74%
    09:00 -5°C° 0 mm 5 mps 745 mmHg 71%
    10:00 -5°C° 0 mm 5 mps 745 mmHg 68%
    11:00 -5°C° 0 mm 5 mps 745 mmHg 66%
    12:00 -4°C° 0 mm 5 mps 745 mmHg 64%
    13:00 -4°C° 0 mm 5 mps 745 mmHg 61%
    14:00 -5°C° 0 mm 5 mps 745 mmHg 60%
    15:00 -5°C° 0 mm 5 mps 746 mmHg 58%
    16:00 -5°C° 0 mm 5 mps 746 mmHg 56%
    17:00 -6°C° 0 mm 5 mps 746 mmHg 55%
    18:00 -7°C° 0 mm 5 mps 746 mmHg 55%
    19:00 -7°C° 0 mm 5 mps 747 mmHg 54%
    20:00 -8°C° 0 mm 5 mps 747 mmHg 53%
    21:00 -8°C° 0 mm 5 mps 747 mmHg 52%
    22:00 -8°C° 0 mm 5 mps 748 mmHg 51%
    23:00 -10°C° 0 mm 5 mps 748 mmHg 52%

    24 February, Saturday

    Time Temperature Precipitation Wind Pressure Humidity
    00:00 -10°C° 0 mm 5 mps 748 mmHg 52%
    01:00 -10°C° 0 mm 5 mps 748 mmHg 52%
    02:00 -11°C° 0 mm 5 mps 748 mmHg 54%
    03:00 -11°C° 0 mm 5 mps 748 mmHg 55%
    04:00 -11°C° 0 mm 5 mps 748 mmHg 57%
    05:00 -11°C° 0 mm 5 mps 748 mmHg 58%
    06:00 -12°C° 0 mm 5 mps 748 mmHg 60%
    07:00 -12°C° 0 mm 5 mps 749 mmHg 61%
    08:00 -11°C° 0 mm 5 mps 749 mmHg 58%
    09:00 -11°C° 0 mm 5 mps 749 mmHg 55%
    10:00 -10°C° 0 mm 5 mps 750 mmHg 52%
    11:00 -9°C° 0 mm 6 mps 750 mmHg 47%
    12:00 -9°C° 0 mm 6 mps 749 mmHg 43%
    13:00 -8°C° 0 mm 6 mps 749 mmHg 38%
    14:00 -8°C° 0 mm 6 mps 749 mmHg 39%
    15:00 -8°C° 0 mm 6 mps 749 mmHg 41%
    16:00 -7°C° 0 mm 5 mps 748 mmHg 42%
    17:00 -8°C° 0.1 mm 5 mps 748 mmHg 50%
    18:00 -8°C° 0.1 mm 4 mps 748 mmHg 58%
    19:00 -8°C° 0.1 mm 4 mps 748 mmHg 67%
    20:00 -9°C° 0.1 mm 4 mps 748 mmHg 64%
    21:00 -9°C° 0.1 mm 4 mps 748 mmHg 61%
    22:00 -9°C° 0.1 mm 4 mps 748 mmHg 59%
    23:00 -9°C° 0 mm 4 mps 748 mmHg 58%
    Show more